Heist-op-den-Berg, Belgium
Current Conditions -  °F | °C
As of 6:20 AM on Wednesday 26 Nov 2014 (Local Time) from EBAW Reporting Station
Clear Clear  
Wind Chill: 36°   Ceiling: Unl
Heat Index: 41°   Visibility: 4mi
Dew Point: 37°   Wind: 7mph
Humidity: 87%   Direction: 90°E
Pressure: 29.97"   Gusts: NA
Location:  51.08°N, 4.73°E
Report Text: EBAW 260520Z AUTO 09006KT 6000 NCD 05/03 Q1015
Loading
Personal Weather Stations






























Interactive Weather Map New forecast layout! Learn more

10-Day Weather Forecast

Advertisements
Track Severe Weather on mobile